Starlink 31315

operational
NORAD ID: 58884 Int'l Des: 2024-020 Owner: SPXS Country: US Constellation: starlink
LEOCIRCULAR

About Starlink 31315

Description loading...

Live Position

Loading 3D Globe...

Upcoming Passes

Altitude History

Altitude vs Time

uPlot chart will show altitude changes over time

Two-Line Element Set

1 58884U 24020J 25259.08611590 -.00000291 00000-0 22944-5 0 9993
2 58884 53.1615 28.0771 0001055 76.2712 283.8406 15.30188910 91699
Epoch: Sep 16, 2025 • Age: 14 hours

Current Status

Altitude 479.9 km
Velocity 7.63 km/s
Sub-Earth Point 47.91°N, 162.04°W
Launch Date Jan 29, 2024
Age 1.6 years
Type internet

Technical Details

Classification Payload
Mass 730.00 kg
Dry Mass 700.00 kg
Total Mass 730.00 kg
Length 0.30 m
Diameter 4.10 m
Span 29.00 m
Shape Box + pan
Manufacturer SPXS
Bus Type Starlink V2M
Phase Status In Orbit
Owner/State SPXS/US

Large Constellations

Loading constellations...